| time (UTC) | temp F | wind direction | speed knots | gust knots | rain 1hr in | rain 24hr in | rain mn in | humidity % | barometer mb |
| 20260507060020 | 54 | 249 | 2.6 | 11.3 | 0.00 | 0.00 | 0.00 | 54 | 1013.1 |
| 20260507054530 | 54 | 150 | 0.0 | 6.1 | 0.00 | 0.00 | 0.00 | 54 | 1013.4 |
| 20260507053008 | 55 | 110 | 1.7 | 5.2 | 0.00 | 0.00 | 0.00 | 51 | 1013.2 |
| 20260507051526 | 55 | 269 | 2.6 | 10.4 | 0.00 | 0.00 | 0.00 | 49 | 1013.2 |
| 20260507050032 | 56 | 278 | 0.9 | 3.5 | 0.00 | 0.00 | 0.00 | 47 | 1013.5 |
| 20260507044520 | 56 | 213 | 0.9 | 2.6 | 0.00 | 0.00 | 0.00 | 47 | 1013.2 |
| 20260507043028 | 56 | 112 | 0.0 | 4.3 | 0.00 | 0.00 | 0.00 | 45 | 1013.2 |
| 20260507041508 | 57 | 72 | 0.9 | 5.2 | 0.00 | 0.00 | 0.00 | 42 | 1013.3 |
| 20260507040018 | 58 | 304 | 2.6 | 7.0 | 0.00 | 0.00 | 0.00 | 41 | 1013.2 |
| 20260507034525 | 57 | 309 | 0.9 | 2.6 | 0.00 | 0.00 | 0.00 | 41 | 1013.0 |
| 20260507033026 | 58 | 340 | 0.0 | 4.3 | 0.00 | 0.00 | 0.00 | 40 | 1012.7 |
| 20260507031527 | 58 | 40 | 0.0 | 0.0 | 0.00 | 0.00 | 0.00 | 39 | 1012.3 |
| 20260507030018 | 57 | 352 | 0.0 | 0.0 | 0.00 | 0.00 | 0.00 | 40 | 1012.3 |
| 20260507024525 | 58 | 352 | 0.0 | 0.0 | 0.00 | 0.00 | 0.00 | 41 | 1012.1 |
| 20260507023022 | 58 | 25 | 0.9 | 2.6 | 0.00 | 0.00 | 0.00 | 40 | 1012.0 |
| 20260507021524 | 58 | 64 | 0.0 | 1.7 | 0.00 | 0.00 | 0.00 | 41 | 1012.0 |
| 20260507020031 | 59 | 40 | 0.0 | 1.7 | 0.00 | 0.00 | 0.00 | 41 | 1011.9 |
| 20260507014529 | 60 | 54 | 0.0 | 1.7 | 0.00 | 0.00 | 0.00 | 38 | 1011.9 |
| 20260507013040 | 61 | 33 | 0.9 | 2.6 | 0.00 | 0.00 | 0.00 | 37 | 1011.9 |
| 20260507011524 | 61 | 249 | 0.0 | 3.5 | 0.00 | 0.00 | 0.00 | 38 | 1011.9 |
| 20260507010034 | 62 | 40 | 0.0 | 1.7 | 0.00 | 0.00 | 0.00 | 36 | 1012.0 |
| 20260507004528 | 62 | 360 | 0.0 | 1.7 | 0.00 | 0.00 | 0.00 | 40 | 1012.1 |
| 20260507003019 | 63 | 352 | 0.9 | 3.5 | 0.00 | 0.00 | 0.00 | 34 | 1012.1 |
| 20260507001504 | 63 | 318 | 2.6 | 6.1 | 0.00 | 0.00 | 0.00 | 32 | 1012.2 |
| 20260507000009 | 65 | 304 | 2.6 | 7.0 | 0.00 | 0.00 | 0.00 | 31 | 1012.2 |
| 20260506234514 | 65 | 292 | 5.2 | 8.7 | 0.00 | 0.00 | 0.00 | 30 | 1012.3 |
| 20260506233017 | 65 | 311 | 1.7 | 7.8 | 0.00 | 0.00 | 0.00 | 31 | 1012.4 |
| 20260506231504 | 65 | 287 | 1.7 | 6.1 | 0.00 | 0.00 | 0.00 | 31 | 1012.7 |
| 20260506230009 | 65 | 352 | 0.9 | 5.2 | 0.00 | 0.00 | 0.00 | 33 | 1013.0 |
| 20260506224508 | 64 | 334 | 1.7 | 7.8 | 0.00 | 0.00 | 0.00 | 32 | 1013.2 |
| 20260506223013 | 63 | 5 | 0.9 | 4.3 | 0.00 | 0.00 | 0.00 | 33 | 1013.3 |
| 20260506221521 | 62 | 302 | 0.9 | 8.7 | 0.00 | 0.00 | 0.00 | 31 | 1013.6 |
| 20260506220007 | 61 | 81 | 4.3 | 7.8 | 0.00 | 0.00 | 0.00 | 34 | 1013.6 |
| 20260506214510 | 61 | 10 | 1.7 | 7.0 | 0.00 | 0.00 | 0.00 | 36 | 1014.1 |
| 20260506213016 | 60 | 92 | 1.7 | 4.3 | 0.00 | 0.00 | 0.00 | 33 | 1014.5 |
| 20260506211518 | 59 | 57 | 2.6 | 8.7 | 0.00 | 0.00 | 0.00 | 35 | 1014.9 |
| 20260506210026 | 59 | 192 | 1.7 | 8.7 | 0.00 | 0.00 | 0.00 | 37 | 1015.1 |
| 20260506204508 | 58 | 215 | 0.9 | 5.2 | 0.00 | 0.00 | 0.00 | 36 | 1015.3 |
| 20260506203008 | 56 | 101 | 0.0 | 6.1 | 0.00 | 0.00 | 0.00 | 33 | 1015.6 |
| 20260506201517 | 55 | 42 | 0.9 | 8.7 | 0.00 | 0.00 | 0.00 | 32 | 1015.7 |
| 20260506200021 | 54 | 121 | 1.7 | 6.1 | 0.00 | 0.00 | 0.00 | 33 | 1016.0 |
| 20260506194526 | 53 | 76 | 1.7 | 7.0 | 0.00 | 0.00 | 0.00 | 33 | 1016.2 |
| 20260506193010 | 53 | 304 | 3.5 | 4.3 | 0.00 | 0.00 | 0.00 | 31 | 1016.5 |
| 20260506191528 | 52 | 10 | 0.0 | 1.7 | 0.00 | 0.00 | 0.00 | 35 | 1016.6 |
| 20260506190019 | 51 | 154 | 2.6 | 7.0 | 0.00 | 0.00 | 0.00 | 31 | 1016.7 |
| 20260506184540 | 50 | 329 | 1.7 | 7.0 | 0.00 | 0.00 | 0.00 | 27 | 1017.0 |
| 20260506183037 | 50 | 278 | 3.5 | 7.0 | 0.00 | 0.00 | 0.00 | 30 | 1017.2 |
| 20260506181515 | 49 | 272 | 0.9 | 5.2 | 0.00 | 0.00 | 0.00 | 24 | 1017.4 |
| 20260506180016 | 49 | 241 | 2.6 | 7.8 | 0.00 | 0.00 | 0.00 | 25 | 1017.5 |
| 20260506174525 | 48 | 73 | 0.9 | 4.3 | 0.00 | 0.00 | 0.00 | 29 | 1017.6 |
| 20260506173025 | 47 | 336 | 1.7 | 5.2 | 0.00 | 0.00 | 0.00 | 32 | 1017.8 |
| 20260506171528 | 47 | 360 | 1.7 | 5.2 | 0.00 | 0.00 | 0.00 | 31 | 1018.0 |
| 20260506170014 | 45 | 180 | 1.7 | 7.0 | 0.00 | 0.00 | 0.00 | 33 | 1018.2 |
| 20260506164523 | 45 | 352 | 0.9 | 7.0 | 0.00 | 0.00 | 0.00 | 35 | 1018.3 |
| 20260506163025 | 45 | 310 | 2.6 | 7.0 | 0.00 | 0.00 | 0.00 | 38 | 1018.3 |
| 20260506161525 | 44 | 76 | 0.9 | 3.5 | 0.00 | 0.00 | 0.00 | 38 | 1018.5 |
| 20260506160026 | 44 | 344 | 2.6 | 4.3 | 0.00 | 0.00 | 0.00 | 39 | 1018.5 |
| 20260506154520 | 43 | 84 | 0.9 | 5.2 | 0.00 | 0.00 | 0.00 | 42 | 1018.6 |
| 20260506153022 | 42 | 234 | 0.9 | 3.5 | 0.00 | 0.00 | 0.00 | 42 | 1018.7 |
| 20260506151507 | 41 | 333 | 0.9 | 3.5 | 0.00 | 0.00 | 0.00 | 47 | 1018.8 |
| 20260506150010 | 39 | 302 | 0.9 | 3.5 | 0.00 | 0.00 | 0.00 | 58 | 1018.9 |
| 20260506144519 | 38 | 352 | 1.7 | 3.5 | 0.00 | 0.00 | 0.00 | 58 | 1019.0 |
| 20260506143022 | 37 | 323 | 0.9 | 1.7 | 0.00 | 0.00 | 0.00 | 60 | 1019.1 |
| 20260506141503 | 37 | 335 | 0.9 | 1.7 | 0.00 | 0.00 | 0.00 | 63 | 1019.1 |
| 20260506140009 | 37 | 44 | 0.0 | 2.6 | 0.00 | 0.00 | 0.00 | 56 | 1019.2 |
| 20260506134510 | 34 | 108 | 1.7 | 2.6 | 0.00 | 0.00 | 0.00 | 63 | 1019.2 |
| 20260506133018 | 32 | 104 | 2.6 | 3.5 | 0.00 | 0.00 | 0.00 | 64 | 1019.1 |
| 20260506131529 | 29 | 108 | 2.6 | 2.6 | 0.00 | 0.00 | 0.00 | 69 | 1019.0 |
| 20260506130005 | 29 | 109 | 2.6 | 3.5 | 0.00 | 0.00 | 0.00 | 69 | 1019.1 |
| 20260506124509 | 28 | 122 | 2.6 | 3.5 | 0.00 | 0.00 | 0.00 | 69 | 1019.0 |
| 20260506123017 | 28 | 99 | 2.6 | 3.5 | 0.00 | 0.00 | 0.00 | 69 | 1018.8 |
| 20260506121520 | 28 | 114 | 1.7 | 2.6 | 0.00 | 0.00 | 0.00 | 70 | 1018.9 |
| 20260506120026 | 28 | 105 | 2.6 | 3.5 | 0.00 | 0.00 | 0.00 | 69 | 1018.8 |
| 20260506114518 | 27 | 107 | 3.5 | 5.2 | 0.00 | 0.00 | 0.00 | 73 | 1018.8 |
| 20260506113024 | 28 | 154 | 4.3 | 5.2 | 0.00 | 0.00 | 0.00 | 70 | 1018.8 |
| 20260506111517 | 27 | 137 | 3.5 | 3.5 | 0.00 | 0.00 | 0.00 | 73 | 1018.8 |
| 20260506110021 | 28 | 119 | 3.5 | 5.2 | 0.00 | 0.00 | 0.00 | 71 | 1019.0 |
| 20260506104525 | 28 | 115 | 3.5 | 3.5 | 0.00 | 0.00 | 0.00 | 72 | 1019.1 |
| 20260506103012 | 27 | 125 | 3.5 | 3.5 | 0.00 | 0.00 | 0.00 | 73 | 1019.1 |
| 20260506101516 | 28 | 136 | 3.5 | 3.5 | 0.00 | 0.00 | 0.00 | 71 | 1019.1 |
| 20260506100020 | 28 | 121 | 2.6 | 3.5 | 0.00 | 0.00 | 0.00 | 71 | 1019.0 |
| 20260506094521 | 29 | 123 | 1.7 | 3.5 | 0.00 | 0.00 | 0.00 | 69 | 1019.2 |
| 20260506093025 | 29 | 107 | 2.6 | 3.5 | 0.00 | 0.00 | 0.00 | 68 | 1019.3 |
| 20260506091508 | 30 | 105 | 1.7 | 2.6 | 0.00 | 0.00 | 0.00 | 68 | 1019.3 |
| 20260506090021 | 31 | 107 | 1.7 | 2.6 | 0.00 | 0.00 | 0.00 | 67 | 1019.3 |
| 20260506084521 | 30 | 118 | 1.7 | 2.6 | 0.00 | 0.00 | 0.00 | 68 | 1019.2 |
| 20260506083023 | 30 | 109 | 2.6 | 3.5 | 0.00 | 0.00 | 0.00 | 66 | 1019.1 |
| 20260506081530 | 31 | 98 | 1.7 | 2.6 | 0.00 | 0.00 | 0.00 | 66 | 1019.1 |
| 20260506073020 | 30 | 111 | 0.9 | 2.6 | 0.00 | 0.00 | 0.00 | 66 | 1019.3 |
| 20260506071525 | 31 | 67 | 0.0 | 2.6 | 0.00 | 0.00 | 0.00 | 67 | 1019.3 |
| 20260506061505 | 32 | 134 | 1.7 | 3.5 | 0.00 | 0.00 | 0.00 | 65 | 1019.2 |